Voltar ao catálogo

COSMOS 1670

AtivoMilitarLEO
NORAD 15930·PAYLOAD·🇷🇺 Russia

Lançado Aug 1, 1985 de Baikonur Cosmodrome

Loading…

Próximas Passagens (próximas 24 horas)

TLE

AtualizadoSource: Space-Track

Época: Sep 14, 2026, 18:36 UTC

1 15930U 85064A   26257.77515954 -.00000075  00000-0  12669-4 0  9997
2 15930  64.9381 267.4778 0061065   5.8070 354.3684 13.83883159 66150

Acompanhe COSMOS 1670 em tempo real com AllMySat

Download on the App Store